SCP
3 3 3 3 3 3 4 4 4 3 3 3 3 3 3 3 2 2 2 1 1 1 1 1 1 1 1 1 1 1 1 0 0 0 0 0 0 0 0 0 0 0 0
3 3 3 3 3 3 4 4 4 4 3 3 3 3 3 3 2 2 2 1 1 1 1 1 1 1 1 1 1 1 1 0 0 0 0 0 0 0 0 0 0 0 0
3 3 2 3 3 3 4 5 5 4 4 4 3 3 3 3 2 2 2 2 1 1 1 1 1 1 1 1 1 1 0 0 0 0 0 0 0 0 0 0 0 0 0
3 3 3 3 3 3 4 5 5 4 4 4 4 4 3 3 2 2 2 2 1 1 1 1 1 1 1 1 1 1 0 0 0 0 0 0 0 0 1 1 1 1 0
3 3 3 3 3 3 4 4 5 4 4 4 4 4 4 3 2 2 2 2 2 2 2 2 2 1 1 1 1 1 0 0 0 0 0 0 0 0 1 1 1 1 0
4 3 3 3 3 3 4 4 4 4 4 4 4 4 4 3 3 2 2 2 2 2 2 2 2 1 1 1 1 1 1 1 1 0 0 0 0 0 1 1 1 1 0
4 3 3 3 3 4 4 4 4 4 4 4 4 4 4 3 3 2 2 2 2 2 2 2 1 1 1 1 1 1 1 1 1 0 0 0 0 0 1 1 1 1 1
3 3 3 3 3 3 4 4 4 4 4 4 4 3 3 3 3 2 2 2 2 2 2 2 1 1 1 1 1 1 1 1 0 0 0 0 0 0 1 1 1 1 1
3 3 3 3 3 3 3 4 4 4 4 4 3 3 3 3 3 2 2 2 2 2 2 2 1 1 1 1 1 1 1 1 0 0 0 0 0 1 1 1 1 1 1
3 3 3 3 3 3 3 3 4 4 4 4 4 3 3 3 3 2 2 2 2 2 2 2 1 1 1 1 1 1 0 0 0 0 0 0 1 1 1 1 1 1 1
3 3 2 2 2 2 3 3 3 4 4 4 4 3 3 2 2 2 2 2 2 2 2 1 1 1 1 1 0 0 0 0 0 0 0 1 1 1 1 1 1 1 1
2 2 2 2 2 2 3 3 4 4 4 4 4 3 2 2 2 2 2 2 2 1 1 1 1 1 1 0 0 0 0 0 0 0 0 1 1 1 1 1 1 1 1
2 2 2 2 2 2 2 3 3 3 3 3 3 3 2 2 2 1 1 1 1 1 1 1 1 1 1 0 0 0 0 0 0 0 0 1 1 1 1 1 1 1 1
2 2 2 2 2 2 2 2 3 3 3 3 3 3 2 2 1 1 1 1 1 1 1 1 1 1 1 0 0 0 0 0 0 0 0 1 1 1 1 1 1 1 1
2 2 2 2 2 2 2 2 2 2 3 3 3 3 2 2 2 1 1 1 1 1 1 1 1 1 1 0 0 0 0 0 0 0 0 0 1 1 1 1 1 1 1
2 2 2 1 1 2 2 2 2 2 2 3 3 2 2 2 2 2 2 2 1 1 1 1 1 1 1 0 0 0 0 0 0 0 0 0 1 1 1 1 1 1 1
1 1 1 1 1 2 2 2 2 2 2 2 2 2 2 2 2 2 2 2 1 1 1 1 1 1 1 0 0 0 0 0 0 0 0 0 0 1 1 1 1 1 1
1 1 1 1 1 1 1 1 1 2 2 2 2 2 1 2 2 2 2 2 2 1 1 1 1 1 1 1 0 0 0 0 0 0 0 0 0 0 0 1 1 1 1
1 1 1 1 1 1 1 1 1 1 2 2 2 1 1 2 2 2 2 2 2 2 1 1 1 1 1 1 0 0 0 0 0 0 0 0 0 0 0 0 1 1 1
1 1 1 1 1 1 1 1 1 1 1 1 1 1 1 1 2 2 3 3 2 2 2 1 1 1 1 1 0 0 0 0 0 0 0 0 0 0 0 0 0 0 0
1 1 1 1 1 1 1 1 1 1 1 1 1 1 1 1 1 2 3 3 2 2 2 1 1 1 1 1 0 0 0 0 0 0 0 0 0 0 0 0 0 0 0
1 1 1 1 1 1 1 1 0 1 1 1 1 1 1 1 1 2 2 2 2 2 2 1 1 1 1 1 0 0 0 0 0 0 0 0 0 0 0 0 0 0 0
1 1 1 1 1 1 1 1 0 0 0 0 1 1 1 1 2 2 2 2 2 2 2 1 1 1 1 0 0 0 0 0 0 0 0 0 0 0 0 0 0 0 0
1 1 1 1 1 1 2 1 1 0 0 0 0 1 1 1 1 1 2 1 1 1 1 1 1 0 0 0 0 0 0 0 0 0 0 0 0 0 0 0 0 0 0
1 1 0 0 0 1 1 1 1 0 0 0 0 1 1 1 1 1 1 1 0 0 1 1 1 0 0 0 0 0 0 0 0 0 0 0 0 0 0 0 0 0 0
1 0 0 0 0 0 1 1 0 0 0 0 0 1 1 0 0 0 0 0 0 0 0 1 1 0 0 0 0 0 0 0 0 0 0 0 0 0 0 0 0 0 0
Wind_Speed
4 6 9 10 10 11 11 11 11 10 10 10 11 11 11 12 12 12 12 12 11 10 10 10 10 10 10 10 10 10 10 10 11 10 9 9 9 9 10 9 8 6 10
7 7 9 9 10 10 10 10 10 10 9 9 10 11 11 11 11 11 11 11 10 10 10 9 9 9 9 9 9 9 9 9 9 9 7 6 7 8 8 8 7 5 9
8 7 8 9 9 9 10 10 10 9 9 9 10 10 10 10 11 11 10 10 10 9 9 9 9 9 9 9 8 8 8 8 8 7 5 3 4 7 7 7 7 8 8
8 7 7 8 9 9 9 9 10 10 9 8 9 9 10 10 10 10 10 10 9 9 8 8 8 8 8 7 7 7 6 6 5 4 2 2 2 5 6 7 7 7 7
6 6 7 8 8 9 9 9 9 9 9 8 8 8 9 9 10 9 9 9 8 8 8 8 7 7 7 6 6 5 5 5 4 2 2 2 1 4 5 6 6 6 6
5 4 6 8 8 8 8 8 9 9 9 8 8 8 8 9 9 9 8 7 8 8 8 7 7 6 6 5 4 4 4 4 3 2 1 2 2 4 5 5 6 5 5
5 4 5 8 8 8 8 8 8 9 9 9 9 8 8 8 8 8 7 7 7 8 7 7 6 6 5 4 4 3 3 3 2 1 1 1 2 5 5 5 5 5 4
6 4 5 7 7 7 8 8 8 8 8 8 8 8 8 8 8 8 8 7 7 8 7 7 6 5 4 3 3 2 2 1 2 1 1 1 3 5 4 4 4 4 3
5 5 3 4 5 6 7 7 7 8 7 7 8 7 6 6 6 7 7 7 7 7 7 6 6 5 4 3 1 1 1 1 1 1 1 2 3 4 4 4 4 4 3
4 4 3 3 3 3 4 6 7 7 7 6 6 6 5 4 5 6 6 6 6 7 6 6 5 4 3 2 1 0 0 1 1 1 1 2 4 4 4 4 4 4 3
3 3 3 3 3 3 4 5 5 6 6 5 4 5 4 3 3 3 4 5 5 6 6 5 5 3 2 1 1 0 1 0 1 1 2 4 5 4 4 3 3 3 4
4 3 3 3 3 3 3 3 3 3 4 3 3 4 3 2 2 3 4 4 4 4 4 4 4 3 2 1 1 0 0 1 1 1 2 5 5 5 4 3 3 4 5
5 3 3 3 3 3 2 3 2 2 3 3 3 4 3 2 2 2 2 2 2 3 2 2 2 1 1 1 1 1 1 1 1 1 2 5 5 5 4 4 4 4 4
4 4 3 3 3 3 3 2 3 3 3 3 3 4 4 2 2 2 1 1 1 1 1 1 1 1 1 1 1 1 1 1 1 1 2 5 5 4 4 4 4 4 4
4 4 3 3 3 4 4 3 3 3 3 3 3 3 4 3 3 3 2 2 1 1 2 2 1 1 1 1 1 1 1 1 1 1 1 4 4 3 3 3 3 3 4
3 3 3 3 3 4 4 3 3 3 3 3 3 4 4 4 4 3 3 2 1 1 1 2 2 1 1 1 1 1 1 1 1 1 2 2 3 3 3 3 3 3 3
4 3 3 3 3 4 4 3 3 3 3 3 3 4 4 4 4 4 3 2 2 1 1 1 1 1 1 0 1 1 1 1 1 1 2 1 1 3 3 3 3 3 3
3 3 3 2 3 3 3 3 2 2 3 3 3 3 4 5 5 4 3 3 2 2 1 2 1 1 1 0 0 1 0 0 0 1 1 1 1 1 1 2 3 3 3
3 4 3 3 3 2 3 3 2 2 3 2 2 3 3 4 5 4 3 2 2 2 1 2 2 2 1 0 0 0 1 0 0 1 1 1 1 1 1 1 2 2 2
3 3 3 3 2 3 2 2 1 2 2 2 2 2 3 4 5 4 3 3 3 2 1 1 2 1 1 1 0 1 1 1 0 1 1 0 0 1 0 0 1 1 2
3 3 3 3 2 2 2 1 1 1 1 1 2 3 3 3 4 4 3 3 3 3 2 2 2 2 1 1 2 2 2 2 1 1 1 1 1 1 1 1 1 1 1
2 2 3 3 2 2 2 1 1 1 1 1 1 2 2 3 3 4 4 3 3 3 2 2 2 2 1 1 2 2 1 3 3 2 1 1 1 1 1 1 1 1 1
2 2 3 3 2 2 3 2 2 3 2 2 1 1 1 2 3 3 4 4 3 3 3 3 3 3 2 0 1 3 2 1 1 2 2 1 1 1 2 2 2 1 1
2 2 3 3 3 3 3 3 3 2 1 1 1 1 0 1 2 2 4 3 3 3 4 3 2 2 3 2 0 0 1 2 2 1 2 2 2 1 2 2 2 2 1
2 2 2 3 3 2 2 4 3 2 1 1 1 1 0 0 1 1 2 3 3 3 3 3 3 2 2 3 2 1 1 1 1 2 2 2 2 2 2 2 2 1 2
2 2 2 3 2 2 2 3 4 4 3 2 1 1 0 0 0 1 2 2 3 2 3 3 3 3 2 2 2 2 2 2 2 1 2 2 2 2 2 2 1 1 1
Wind_Direction
172 167 152 147 139 136 131 125 120 118 117 120 122 123 121 119 118 118 118 118 117 116 114 112 112 111 111 109 107 106 104 102 99 94 88 88 92 94 92 89 86 80 87
156 156 149 146 142 137 133 128 124 120 120 122 124 125 127 126 125 124 123 123 122 120 116 113 109 109 110 111 111 110 109 107 105 97 86 82 87 95 99 95 96 95 92
141 147 142 141 142 138 134 132 130 127 126 125 129 130 130 132 131 129 128 127 124 121 119 117 110 109 107 107 110 113 114 113 110 101 91 86 94 100 104 103 101 101 98
141 147 143 135 143 142 138 137 136 135 134 131 133 134 133 135 137 134 132 131 128 124 121 117 113 112 111 112 112 114 117 114 109 108 95 93 104 107 111 110 104 107 104
138 145 145 139 142 145 144 142 143 141 140 137 137 139 139 138 136 137 137 133 129 125 122 120 119 119 118 118 118 118 117 110 96 89 97 112 121 120 118 114 108 110 110
130 137 146 144 145 146 146 148 149 150 148 144 141 139 142 142 141 137 135 134 130 127 127 127 128 126 125 126 126 124 115 101 88 81 109 139 142 132 130 127 121 114 110
131 139 150 150 149 149 151 153 154 155 154 152 148 145 145 146 144 142 137 133 136 135 133 135 136 133 131 132 129 129 113 91 94 87 122 155 164 151 144 138 136 133 128
138 140 146 155 153 150 155 156 158 158 159 157 154 150 150 146 146 147 145 141 143 144 143 143 143 141 139 135 127 125 96 96 99 103 142 176 174 159 153 150 151 148 145
136 137 143 153 161 158 161 161 163 162 159 161 159 154 151 151 149 150 150 149 149 153 153 153 154 154 156 152 132 104 66 83 110 147 176 194 186 172 167 168 175 177 172
136 139 146 158 163 169 171 173 165 162 157 160 165 160 156 159 158 156 159 158 158 160 161 161 161 163 165 176 185 193 108 91 139 186 193 209 201 187 179 178 183 192 193
147 150 153 154 167 174 181 176 164 163 158 154 158 154 150 154 156 161 168 162 163 166 169 169 169 168 172 198 226 234 98 148 193 197 202 211 197 185 183 192 205 207 207
166 171 165 149 165 172 177 166 165 164 156 151 152 147 143 141 152 151 148 148 153 156 164 167 162 153 136 175 243 243 147 206 218 213 213 207 195 195 199 209 219 226 228
176 176 172 157 167 170 171 173 165 161 156 148 150 147 138 132 136 128 129 139 145 147 151 158 140 139 152 184 212 220 212 206 215 223 219 210 206 206 212 220 224 232 239
173 176 178 168 169 179 174 173 169 166 163 158 160 154 145 146 143 142 138 143 143 153 151 144 140 145 161 209 216 222 221 210 210 210 220 211 210 210 217 228 230 233 239
169 179 189 178 177 183 171 174 171 174 172 166 164 163 156 154 156 153 153 145 145 153 163 156 156 160 183 241 245 231 242 239 216 198 212 214 213 212 216 221 237 243 249
176 183 183 172 180 171 166 167 183 178 169 161 165 168 161 158 157 157 155 147 159 178 173 164 169 173 206 220 261 251 227 232 223 205 198 211 217 223 239 243 248 258 267
175 177 173 172 164 156 160 163 181 178 166 164 172 168 166 162 161 159 158 159 173 176 157 146 148 158 180 220 271 282 246 233 208 206 192 197 214 228 237 242 246 258 275
160 158 163 164 155 153 155 150 171 160 155 162 167 163 166 165 162 159 160 169 173 157 150 155 155 155 164 151 302 294 294 252 196 210 194 187 185 201 234 249 256 262 273
160 153 150 147 152 145 136 135 158 152 149 156 153 157 164 163 163 160 160 164 159 148 147 167 158 159 166 157 278 304 311 268 223 193 185 188 184 178 196 252 252 270 288
136 137 140 126 125 120 107 103 113 117 131 141 147 152 157 165 165 158 155 159 155 148 150 158 156 148 158 162 85 352 334 334 17 127 156 152 189 176 166 259 269 272 274
94 102 123 113 115 116 110 110 142 152 146 146 156 154 158 160 164 160 157 156 157 163 168 158 143 148 142 111 76 25 1 10 25 19 39 67 17 351 3 313 267 258 280
124 130 115 114 119 127 133 147 149 137 132 147 163 157 165 162 160 162 162 163 162 159 154 148 133 146 160 124 118 109 14 350 350 353 9 43 24 10 4 341 312 271 273
141 151 136 120 111 107 108 104 76 66 65 61 84 144 161 164 163 156 160 164 167 165 171 172 163 150 164 170 126 140 144 220 305 331 349 7 11 18 1 344 338 331 306
182 166 138 126 114 114 115 117 128 130 135 175 183 178 155 149 161 166 160 165 176 174 171 176 170 160 156 168 160 86 157 158 164 309 327 340 357 359 348 341 332 330 350
164 146 132 119 112 111 127 139 138 127 132 129 110 112 148 121 166 168 169 163 171 179 177 171 162 165 162 170 167 156 106 92 148 171 257 308 332 315 317 309 310 328 352
103 111 121 125 123 122 126 134 142 139 132 119 125 139 194 160 230 200 170 172 170 175 188 180 173 175 176 170 168 163 166 170 181 172 211 256 286 292 301 298 314 331 349